Weather History for KT65 - October, 2013

Change the Weather History Date:

Tuesday, October 1, 2013

  Actual Average (KMFE) Record (KMFE)
Temperature  
Mean Temperature 85 °F 80 °F  
Max Temperature 94 °F 90 °F 98 °F (2009)
Min Temperature 77 °F 70 °F 54 °F (1975)
Degree Days  
Heating Degree Days 0 0  
Month to date heating degree days 0  
Since 1 July heating degree days 0  
Cooling Degree Days 20 15  
Month to date cooling degree days 15  
Year to date cooling degree days 3814  
Growing Degree Days 35 (Base 50)    
Moisture  
Dew Point 73 °F    
Average Humidity 71    
Maximum Humidity 89    
Minimum Humidity 46    
Precipitation  
Precipitation 0.00 in 0.10 in 3.61 in (1958)
Month to date precipitation 0.10  
Year to date precipitation 18.14  
Sea Level Pressure  
Sea Level Pressure 29.84 in    
Wind  
Wind Speed 8 mph (SSE)    
Max Wind Speed 16 mph    
Max Gust Speed 22 mph    
Visibility 9 miles    
Events      
T = Trace of Precipitation, MM = Missing Value Source: NWS Daily Summary

Daily Weather History Graph

Daily Weather History Graph

Search for Another Location

Airport or City:

Trip Planner

Search our weather history database for the weather conditions in past years. The results will help you decide how hot, cold, wet, or windy it might be!

Date:

Astronomy

Oct. 01, 2013 Rise Set
Actual Time 7:24 AM CDT 7:18 PM CDT
Civil Twilight 7:01 AM CDT 7:41 PM CDT
Nautical Twilight 6:34 AM CDT 8:07 PM CDT
Astronomical Twilight 6:07 AM CDT 8:34 PM CDT
Moon 4:16 AM CDT (10/1) 5:08 PM CDT (10/1)
Length of Visible Light 12h 39m
Length of Day
11h 53m
Waning Crescent, 12% of the Moon is Illuminated
Oct 1
Waning Crescent
Oct 4
New
Oct 11
First Quarter
Oct 18
Full
Oct 26
Last Quarter

Hourly Weather History & Observations

Time (CDT) Temp. Heat Index Dew Point Humidity Pressure Visibility Wind Dir Wind Speed Gust Speed Precip Events Conditions
12:15 AM 79.0 °F - 73.4 °F 83% 29.85 in 10.0 mi SSE 5.8 mph - N/A   Clear
12:35 AM 78.8 °F - 73.6 °F 84% 29.85 in 10.0 mi SSE 5.8 mph - N/A   Clear
12:55 AM 78.8 °F - 73.8 °F 84% 29.85 in 10.0 mi SSE 6.9 mph - N/A   Clear
1:15 AM 78.8 °F - 74.1 °F 85% 29.85 in 10.0 mi SSE 5.8 mph - N/A   Clear
1:35 AM 78.8 °F - 74.3 °F 86% 29.85 in 10.0 mi SSE 5.8 mph - N/A   Clear
1:55 AM 78.8 °F - 74.5 °F 87% 29.85 in 10.0 mi SSE 4.6 mph - N/A   Clear
2:15 AM 78.8 °F - 74.5 °F 87% 29.85 in 10.0 mi South 5.8 mph - N/A   Mostly Cloudy
2:35 AM 78.8 °F - 74.5 °F 87% 29.84 in 10.0 mi SSE 4.6 mph - N/A   Overcast
2:55 AM 78.8 °F - 74.5 °F 87% 29.84 in 10.0 mi SSE 5.8 mph - N/A   Overcast
3:15 AM 78.8 °F - 74.5 °F 87% 29.83 in 10.0 mi SSE 5.8 mph - N/A   Scattered Clouds
3:35 AM 78.8 °F - 74.5 °F 87% 29.83 in 10.0 mi SSE 4.6 mph - N/A   Mostly Cloudy
3:55 AM 79.0 °F - 74.7 °F 87% 29.82 in 10.0 mi SSE 5.8 mph - N/A   Overcast
4:15 AM 79.0 °F - 74.5 °F 86% 29.82 in 7.0 mi South 5.8 mph - N/A   Overcast
4:35 AM 78.8 °F - 74.5 °F 87% 29.82 in 10.0 mi SSE 4.6 mph - N/A   Mostly Cloudy
4:55 AM 78.8 °F - 74.5 °F 87% 29.82 in 7.0 mi SSE 4.6 mph - N/A   Overcast
5:15 AM 78.6 °F - 74.5 °F 87% 29.82 in 10.0 mi SSE 4.6 mph - N/A   Scattered Clouds
5:35 AM 78.1 °F - 74.3 °F 88% 29.82 in 7.0 mi SSE 5.8 mph - N/A   Scattered Clouds
5:55 AM 77.9 °F - 74.3 °F 89% 29.83 in 7.0 mi SE 3.5 mph - N/A   Scattered Clouds
6:15 AM 77.9 °F - 74.3 °F 89% 29.83 in 7.0 mi SSE 4.6 mph - N/A   Scattered Clouds
6:35 AM 78.1 °F - 74.5 °F 89% 29.84 in 7.0 mi SSE 4.6 mph - N/A   Scattered Clouds
6:55 AM 78.1 °F - 74.1 °F 88% 29.84 in 10.0 mi SSE 6.9 mph - N/A   Scattered Clouds
7:15 AM 78.3 °F - 73.6 °F 85% 29.85 in 7.0 mi SSE 5.8 mph - N/A   Clear
7:35 AM 78.1 °F - 73.4 °F 85% 29.86 in 7.0 mi SSE 8.1 mph - N/A   Mostly Cloudy
7:55 AM 78.1 °F - 72.7 °F 83% 29.86 in 7.0 mi South 5.8 mph - N/A   Mostly Cloudy
8:15 AM 77.9 °F - 71.8 °F 81% 29.86 in 7.0 mi SSE 9.2 mph - N/A   Scattered Clouds
8:35 AM 79.2 °F - 72.5 °F 80% 29.87 in 10.0 mi SSE 5.8 mph - N/A   Clear
8:55 AM 80.2 °F 84.7 °F 73.4 °F 80% 29.87 in 7.0 mi South 6.9 mph - N/A   Clear
9:15 AM 82.2 °F 88.3 °F 73.9 °F 76% 29.88 in 7.0 mi SSE 11.5 mph 16.1 mph N/A   Clear
9:35 AM 82.9 °F 89.7 °F 74.5 °F 75% 29.88 in 7.0 mi SSE 9.2 mph - N/A   Scattered Clouds
9:55 AM 84.2 °F 91.2 °F 73.9 °F 71% 29.88 in 7.0 mi South 11.5 mph - N/A   Scattered Clouds
10:15 AM 85.8 °F 92.6 °F 73.0 °F 65% 29.88 in 7.0 mi South 16.1 mph 19.6 mph N/A   Scattered Clouds
10:35 AM 86.0 °F 92.6 °F 72.5 °F 64% 29.89 in 7.0 mi South 15.0 mph 21.9 mph N/A   Clear
10:55 AM 87.8 °F 95.6 °F 73.2 °F 62% 29.88 in 7.0 mi South 15.0 mph - N/A   Scattered Clouds
11:15 AM 88.7 °F 95.7 °F 72.0 °F 58% 29.88 in 7.0 mi South 15.0 mph - N/A   Scattered Clouds
11:35 AM 89.4 °F 95.8 °F 71.1 °F 55% 29.88 in 10.0 mi South 15.0 mph 21.9 mph N/A   Scattered Clouds
11:55 AM 90.9 °F 97.8 °F 71.6 °F 53% 29.87 in 10.0 mi South 11.5 mph 18.4 mph N/A   Scattered Clouds
12:15 PM 91.8 °F 99.1 °F 71.6 °F 52% 29.87 in 7.0 mi South 12.7 mph 17.3 mph N/A   Mostly Cloudy
12:35 PM 92.3 °F 99.7 °F 72.0 °F 51% 29.87 in 7.0 mi South 16.1 mph - N/A   Overcast
12:55 PM 91.8 °F 99.1 °F 71.6 °F 52% 29.86 in 7.0 mi South 12.7 mph 17.3 mph N/A   Mostly Cloudy
1:15 PM 92.7 °F 99.4 °F 71.1 °F 49% 29.85 in 10.0 mi South 12.7 mph 17.3 mph N/A   Mostly Cloudy
1:35 PM 92.7 °F 99.4 °F 71.1 °F 49% 29.85 in 10.0 mi South 12.7 mph 20.7 mph N/A   Mostly Cloudy
1:55 PM 93.7 °F 101.1 °F 71.1 °F 48% 29.83 in 10.0 mi South 9.2 mph 18.4 mph N/A   Mostly Cloudy
2:15 PM 93.9 °F 100.3 °F 70.2 °F 46% 29.83 in 7.0 mi South 11.5 mph 17.3 mph N/A   Mostly Cloudy
2:35 PM 93.7 °F 99.9 °F 70.0 °F 46% 29.82 in 10.0 mi South 10.4 mph - N/A   Scattered Clouds
2:55 PM 93.6 °F 101.9 °F 72.1 °F 50% 29.81 in 10.0 mi SSE 9.2 mph 16.1 mph N/A   Mostly Cloudy
3:15 PM 90.5 °F 98.1 °F 72.1 °F 55% 29.80 in 10.0 mi SE 12.7 mph 20.7 mph N/A   Overcast
3:35 PM 92.5 °F 100.1 °F 72.0 °F 51% 29.80 in 10.0 mi SSE 11.5 mph 19.6 mph N/A   Mostly Cloudy
3:55 PM 91.2 °F 97.5 °F 71.1 °F 51% 29.80 in 10.0 mi SE 12.7 mph 19.6 mph N/A   Scattered Clouds
4:15 PM 92.3 °F 99.7 °F 71.8 °F 51% 29.80 in 10.0 mi SE 12.7 mph - N/A   Scattered Clouds
4:35 PM 92.5 °F 99.6 °F 71.4 °F 50% 29.79 in 10.0 mi SSE 10.4 mph 18.4 mph N/A   Scattered Clouds
4:55 PM 91.9 °F 98.4 °F 71.1 °F 50% 29.79 in 7.0 mi SSE 12.7 mph 18.4 mph N/A   Clear
5:15 PM 92.1 °F 98.8 °F 70.9 °F 50% 29.80 in 10.0 mi SSE 13.8 mph - N/A   Clear
5:35 PM 91.2 °F 97.5 °F 70.9 °F 51% 29.79 in 7.0 mi SSE 11.5 mph 17.3 mph N/A   Clear
5:55 PM 90.5 °F 98.1 °F 72.1 °F 55% 29.79 in 10.0 mi SSE 12.7 mph - N/A   Clear
6:15 PM 89.1 °F 96.5 °F 72.5 °F 58% 29.80 in 10.0 mi SE 11.5 mph 17.3 mph N/A   Clear
6:35 PM 88.0 °F 94.7 °F 72.1 °F 59% 29.80 in 7.0 mi SSE 13.8 mph 18.4 mph N/A   Clear
6:55 PM 86.9 °F 93.3 °F 71.8 °F 61% 29.81 in 10.0 mi SSE 12.7 mph 16.1 mph N/A   Clear
7:15 PM 85.5 °F 91.8 °F 72.5 °F 65% 29.81 in 10.0 mi SSE 10.4 mph - N/A   Clear
7:35 PM 84.6 °F 90.7 °F 72.5 °F 67% 29.82 in 10.0 mi SSE 10.4 mph 16.1 mph N/A   Clear
7:55 PM 83.8 °F 89.8 °F 72.9 °F 69% 29.82 in 10.0 mi SSE 11.5 mph 17.3 mph N/A   Clear
8:15 PM 83.3 °F 89.6 °F 73.4 °F 72% 29.83 in 10.0 mi SSE 10.4 mph - N/A   Clear
8:35 PM 82.6 °F 88.6 °F 73.4 °F 74% 29.84 in 10.0 mi SSE 9.2 mph - N/A   Clear
8:55 PM 81.9 °F 87.0 °F 72.7 °F 74% 29.86 in 10.0 mi SSE 9.2 mph - N/A   Clear
9:15 PM 81.5 °F 86.3 °F 72.5 °F 74% 29.86 in 10.0 mi SSE 10.4 mph - N/A   Clear
9:35 PM 80.8 °F 85.2 °F 72.7 °F 76% 29.87 in 10.0 mi SSE 6.9 mph - N/A   Clear
9:55 PM 80.6 °F 85.0 °F 72.9 °F 77% 29.88 in 10.0 mi SE 6.9 mph - N/A   Clear
10:15 PM 79.9 °F - 73.4 °F 80% 29.88 in 10.0 mi SE 4.6 mph - N/A   Clear
10:35 PM 79.9 °F - 73.6 °F 81% 29.89 in 10.0 mi ESE 6.9 mph - N/A   Clear
10:55 PM 79.7 °F - 73.8 °F 82% 29.89 in 10.0 mi SE 6.9 mph - N/A   Scattered Clouds
11:15 PM 79.5 °F - 73.8 °F 82% 29.89 in 10.0 mi SSE 8.1 mph - N/A   Scattered Clouds
11:35 PM 79.3 °F - 73.8 °F 83% 29.89 in 10.0 mi SE 6.9 mph - N/A   Clear
11:55 PM 79.2 °F - 73.6 °F 83% 29.90 in 7.0 mi SE 6.9 mph - N/A   Clear